Regional Weather Roundup
Issued by NWS

Home | Current Version | Previous Version | Text Only | Print | Product List | Glossary Off
Versions: 1 2 3 4 5 6 7 8 9 10 11 12 13 14 15 16 17 18 19 20 21 22 23 24 25 26 27 28

000
ASUS45 KCYS 171510
RWRWY

WYOMING REGIONAL WEATHER ROUNDUP
NATIONAL WEATHER SERVICE CHEYENNE WY
900 AM MDT THU APR 17 2014

NOTE:  "FAIR" INDICATES FEW OR NO CLOUDS BELOW 12,000 FEET
WITH NO SIGNIFICANT WEATHER AND/OR OBSTRUCTIONS TO VISIBILITY.

WYZ001-171600-
YELLOWSTONE NATIONAL PARK

CITY           SKY/WX    TMP DP  RH WIND       PRES   REMARKS
LK YELLOWSTONE   N/A     22  11  62 CALM      30.06S
W YELLOWSTONE  NOT AVBL

$$
WYZ002>013-054>058-071-098>099-171600-
NORTHERN WYOMING

CITY           SKY/WX    TMP DP  RH WIND       PRES   REMARKS
JACKSON        SUNNY     27  19  74 N6        30.08R WCI  20
CODY           MOSUNNY   39  28  65 W5        29.99S
GREYBULL       SUNNY     37  30  75 CALM      30.01F
WORLAND        SUNNY     41  32  70 CALM      30.01S
SHERIDAN       CLOUDY    34  31  88 CALM      30.02S
BUFFALO        MOSUNNY   35  29  78 S3        30.01F
GILLETTE       CLOUDY    38  33  82 S24       30.01F WCI  27
HULETT         CLOUDY    39  32  75 SW13      30.07  WCI  32
NEWCASTLE      CLOUDY    34  32  93 SE8       30.11  WCI  27

$$
WYZ014>020-022>026-101>103-171600-
CENTRAL WYOMING

CITY           SKY/WX    TMP DP  RH WIND       PRES   REMARKS
BIG PINEY      SUNNY     30  17  58 E5        30.10S WCI  25
PINEDALE       CLOUDY    28  19  69 CALM      30.11R
DUBOIS         FAIR      36  14  41 N7        30.02R WCI  30
LANDER         PTSUNNY   35  29  78 CALM      30.04F
RIVERTON       MOSUNNY   36  28  73 CALM      30.05S
CASPER         SUNNY     38  31  76 S12       30.06R WCI  30
DOUGLAS        CLOUDY    37  32  82 SE8       30.08S WCI  31

$$
WYZ021-027>030-104>119-171600-
SOUTHERN WYOMING

CITY           SKY/WX    TMP DP  RH WIND       PRES   REMARKS
EVANSTON       SUNNY     38  15  39 SW9       30.11R WCI  31
FORT BRIDGER   FAIR      41  14  33 CALM      30.12S
ROCK SPRINGS   PTSUNNY   34  12  40 CALM      30.10R
DIXON          FAIR      37  18  45 SE3       30.15R
RAWLINS        SUNNY     36  21  54 SW6       30.10R WCI  31
SARATOGA       FAIR      37  18  44 SE3       30.11S
LARAMIE        SUNNY     35  18  49 CALM      30.08S
CHEYENNE       MOSUNNY   34  31  88 S6        30.08S WCI  29
TORRINGTON     CLOUDY    36  33  89 SE13      30.12S WCI  27
PINE BLUFFS    CLOUDY    34  32  93 S8        30.12S WCI  27

$$



USA.gov is the U.S. government's official web portal to all federal, state and local government web resources and services.